Tracking 28915 objects as of 30-May-2024
HD Live streaming from Space Station
objects crossing your sky now

ASTROCAST-01

Track ASTROCAST-01 now!
10-day predictions
ASTROCAST-01 is classified as:


NORAD ID: 43798
Int'l Code: 2018-099AS
Perigee: 532.9 km
Apogee: 545.6 km
Inclination: 97.5 °
Period: 95.3 minutes
Semi major axis: 6910 km
RCS: Unknown
Launch date: December 3, 2018
Source: (SWTZ)
Launch site: AIR FORCE WESTERN TEST RANGE (AFWTR)

Uplink (MHz):
Downlink (MHz): 437.150/2403.000
Beacon (MHz):
Mode: 1200bps FSK
Call sign: HB9GSF
Status: Active

Your satellite tracking list
Your tracking list is empty




NASA's NSSDC Master Catalog

Two Line Element Set (TLE):
1 43798U 18099AS  24151.12718153  .00010507  00000-0  62609-3 0  9998
2 43798  97.5355 214.4664 0009188 357.8257   2.2932 15.11335950300157
Source of the keplerian elements: AMSAT